Date String (YYYY-MM-DD hh:mm:ss) UTC,Instrument flags,Ambient pressure (hPa),Sample flow (lpm),Bypass flow (lpm),Sample temperature (°C),Ambient temperature (°C),ASC tube jacket temperature (°C),LED temperature (°C),Box temperature (°C),Sample RH (%),Span deviation,Mass concentration (μg/m³),Mass concentration (μg/m³),Mass concentration (μg/m³)
DateTimeUTC,F1_M11,P_M11,Q1_M11,Q2_M11,T1_M11,T2_M11,T3_M11,T4_M11,T5_M11,U1_M11,ZSPAN_M11,X0_M11,X2_M11,X1_M11
2022-08-18 01:00:00,,0830.8,4.99,0.00,29.4,27.7,00.0,38.2,31.3,17.2,0000.0,0009.98,0004.09,0003.74
2022-08-18 01:01:00,,0830.7,5.00,0.00,29.4,27.9,00.0,38.2,31.4,17.2,0000.0,0009.41,0004.08,0003.74
2022-08-18 01:02:00,,0830.7,5.00,0.00,29.5,28.1,00.0,38.2,31.4,17.2,0000.0,0008.42,0004.09,0003.74
2022-08-18 01:03:00,,0830.7,4.99,0.00,29.5,28.2,00.0,38.2,31.5,17.2,0000.0,0007.77,0004.12,0003.75
2022-08-18 01:04:00,,0830.7,5.01,0.00,29.6,28.4,00.0,38.2,31.6,17.3,0000.0,0008.45,0004.11,0003.76
2022-08-18 01:05:00,,0830.7,4.99,0.00,29.6,28.6,00.0,38.3,31.7,17.6,0000.0,0008.53,0004.11,0003.76
2022-08-18 01:06:00,,0830.8,5.01,0.00,29.7,28.6,00.0,38.3,31.7,18.1,0000.0,0008.66,0004.13,0003.76
2022-08-18 01:07:00,,0830.8,5.00,0.00,29.6,27.9,00.0,38.2,31.4,18.4,0000.0,0009.07,0004.15,0003.78
2022-08-18 01:08:00,,0830.7,5.01,0.00,29.5,27.2,00.0,38.2,31.2,17.9,0000.0,0009.28,0004.15,0003.77
2022-08-18 01:09:00,,0830.8,4.99,0.00,29.5,27.1,00.0,38.2,31.1,17.1,0000.0,0009.30,0004.16,0003.76
2022-08-18 01:10:00,,0830.8,5.01,0.00,29.4,27.2,00.0,38.2,31.1,17.2,0000.0,0009.33,0004.17,0003.76
2022-08-18 01:11:00,,0830.8,5.00,0.00,29.4,27.4,00.0,38.2,31.2,17.3,0000.0,0009.07,0004.16,0003.74
2022-08-18 01:12:00,,0830.8,5.00,0.00,29.4,27.6,00.0,38.2,31.2,17.2,0000.0,0009.10,0004.17,0003.73
2022-08-18 01:13:00,,0830.7,5.00,0.00,29.4,27.8,00.0,38.2,31.3,17.1,0000.0,0009.13,0004.16,0003.72
2022-08-18 01:14:00,,0830.7,5.00,0.00,29.4,28.0,00.0,38.2,31.4,17.0,0000.0,0008.68,0004.12,0003.70
2022-08-18 01:15:00,,0830.7,5.01,0.00,29.5,28.2,00.0,38.2,31.5,17.1,0000.0,0007.82,0004.11,0003.68
2022-08-18 01:16:00,,0830.7,4.99,0.00,29.5,28.4,00.0,38.2,31.5,17.0,0000.0,0007.73,0004.10,0003.67
2022-08-18 01:17:00,,0830.8,5.01,0.00,29.6,28.5,00.0,38.2,31.6,16.8,0000.0,0007.65,0004.08,0003.67
2022-08-18 01:18:00,,0830.8,5.00,0.00,29.6,28.7,00.0,38.3,31.7,17.0,0000.0,0007.97,0004.07,0003.66
2022-08-18 01:19:00,,0830.8,5.00,0.00,29.7,28.6,00.0,38.3,31.7,17.1,0000.0,0008.11,0004.10,0003.66
2022-08-18 01:20:00,,0830.8,5.01,0.00,29.6,27.9,00.0,38.2,31.4,17.0,0000.0,0008.69,0004.10,0003.67
2022-08-18 01:21:00,,0830.8,5.00,0.00,29.5,27.3,00.0,38.2,31.3,17.1,0000.0,0008.80,0004.09,0003.68
2022-08-18 01:22:00,,0830.7,5.01,0.00,29.5,27.2,00.0,38.2,31.2,17.2,0000.0,0008.69,0004.07,0003.68
2022-08-18 01:23:00,,0830.8,5.00,0.00,29.4,27.3,00.0,38.2,31.2,17.1,0000.0,0008.66,0004.06,0003.69
2022-08-18 01:24:00,,0830.8,5.00,0.00,29.4,27.5,00.0,38.2,31.2,17.1,0000.0,0008.56,0004.05,0003.70
2022-08-18 01:25:00,,0830.8,5.00,0.00,29.4,27.7,00.0,38.2,31.3,17.5,0000.0,0008.74,0004.08,0003.72
2022-08-18 01:26:00,,0830.8,5.00,0.00,29.4,27.9,00.0,38.2,31.3,17.4,0000.0,0009.73,0004.12,0003.74
2022-08-18 01:27:00,,0830.9,5.00,0.00,29.5,28.1,00.0,38.2,31.4,17.8,0000.0,0009.83,0004.16,0003.76
2022-08-18 01:28:00,,0830.9,4.99,0.00,29.5,28.2,00.0,38.2,31.5,18.4,0000.0,0009.83,0004.17,0003.76
2022-08-18 01:29:00,,0830.9,4.99,0.00,29.6,28.4,00.0,38.2,31.6,18.5,0000.0,0009.16,0004.17,0003.76
2022-08-18 01:30:00,,0830.9,5.01,0.00,29.6,28.6,00.0,38.3,31.6,18.1,0000.0,0008.79,0004.15,0003.76
2022-08-18 01:31:00,,0830.9,5.00,0.00,29.7,28.6,00.0,38.3,31.7,18.1,0000.0,0008.27,0004.15,0003.76
2022-08-18 01:32:00,,0830.9,5.01,0.00,29.6,27.9,00.0,38.3,31.4,18.0,0000.0,0008.69,0004.15,0003.76
2022-08-18 01:33:00,,0830.9,5.00,0.00,29.5,27.3,00.0,38.2,31.2,17.9,0000.0,0008.98,0004.18,0003.75
2022-08-18 01:34:00,,0830.9,5.01,0.00,29.5,27.1,00.0,38.2,31.2,17.9,0000.0,0009.15,0004.18,0003.75
2022-08-18 01:35:00,,0830.9,5.00,0.00,29.4,27.2,00.0,38.2,31.1,17.8,0000.0,0009.31,0004.17,0003.74
2022-08-18 01:36:00,,0830.9,5.00,0.00,29.4,27.3,00.0,38.2,31.1,17.6,0000.0,0009.09,0004.14,0003.73
2022-08-18 01:37:00,,0830.9,5.00,0.00,29.4,27.5,00.0,38.2,31.2,17.4,0000.0,0008.16,0004.11,0003.72
2022-08-18 01:38:00,,0830.9,5.00,0.00,29.4,27.7,00.0,38.2,31.3,17.3,0000.0,0008.14,0004.10,0003.70
2022-08-18 01:39:00,,0830.9,4.99,0.00,29.4,27.9,00.0,38.2,31.3,17.2,0000.0,0008.10,0004.10,0003.70
2022-08-18 01:40:00,,0830.9,5.01,0.00,29.4,28.1,00.0,38.2,31.4,17.2,0000.0,0008.16,0004.10,0003.71
2022-08-18 01:41:00,,0830.9,4.99,0.00,29.5,28.3,00.0,38.2,31.5,17.0,0000.0,0008.50,0004.10,0003.71
2022-08-18 01:42:00,,0831.0,5.01,0.00,29.5,28.4,00.0,38.2,31.6,16.9,0000.0,0008.40,0004.11,0003.72
2022-08-18 01:43:00,,0831.0,5.00,0.00,29.6,28.6,00.0,38.2,31.6,16.9,0000.0,0007.89,0004.09,0003.71
2022-08-18 01:44:00,,0831.0,4.99,0.00,29.7,28.7,00.0,38.3,31.7,16.9,0000.0,0007.48,0004.04,0003.72
2022-08-18 01:45:00,,0831.0,5.01,0.00,29.7,28.6,00.0,38.3,31.7,16.8,0000.0,0007.25,0004.04,0003.72
2022-08-18 01:46:00,,0831.0,5.00,0.00,29.6,27.9,00.0,38.2,31.4,18.2,0000.0,0007.11,0004.05,0003.73
2022-08-18 01:47:00,,0831.0,4.99,0.00,29.6,27.3,00.0,38.2,31.2,19.6,0000.0,0007.46,0004.09,0003.74
2022-08-18 01:48:00,,0831.0,5.01,0.00,29.5,27.2,00.0,38.2,31.2,19.7,0000.0,0007.49,0004.11,0003.76
2022-08-18 01:49:00,,0831.0,5.00,0.00,29.4,27.2,00.0,38.2,31.1,19.3,0000.0,0007.72,0004.10,0003.77
2022-08-18 01:50:00,,0831.0,5.00,0.00,29.4,27.4,00.0,38.2,31.1,18.8,0000.0,0008.23,0004.11,0003.78
2022-08-18 01:51:00,,0831.0,5.00,0.00,29.4,27.6,00.0,38.2,31.2,19.2,0000.0,0008.25,0004.12,0003.78
2022-08-18 01:52:00,,0831.0,5.01,0.00,29.4,27.7,00.0,38.2,31.3,19.5,0000.0,0007.86,0004.12,0003.78
2022-08-18 01:53:00,,0831.1,5.00,0.00,29.4,27.9,00.0,38.2,31.4,19.1,0000.0,0008.37,0004.14,0003.79
2022-08-18 01:54:00,,0831.0,5.00,0.00,29.5,28.1,00.0,38.2,31.4,19.0,0000.0,0008.62,0004.16,0003.80
2022-08-18 01:55:00,,0831.1,4.99,0.00,29.5,28.3,00.0,38.2,31.5,19.2,0000.0,0008.74,0004.20,0003.81
2022-08-18 01:56:00,,0831.1,5.01,0.00,29.5,28.4,00.0,38.2,31.5,18.3,0000.0,0008.76,0004.21,0003.82
2022-08-18 01:57:00,,0831.0,4.99,0.00,29.6,28.6,00.0,38.3,31.6,17.6,0000.0,0008.73,0004.20,0003.83
2022-08-18 01:58:00,,0831.0,5.00,0.00,29.6,28.7,00.0,38.3,31.7,17.3,0000.0,0008.59,0004.20,0003.83
2022-08-18 01:59:00,,0831.0,5.01,0.00,29.7,28.5,00.0,38.3,31.6,17.1,0000.0,0008.61,0004.20,0003.83
